AIC5YZ VIDP-VECC

Flight info

Callsign AIC5YZ
Flight time 1h 59m
Altitude 39000
Route ALI6D ALI G452 LKN W45 PPT W52 SEGMO SEGMO2A
Aircraft A20N/M-SDE2E3FGHIRWXY/LB1

Departure

Time 2026-04-25 16:01
Airport Indira Gandhi International Airport (VIDP)

Arrival

Time 2026-04-25 18:01
Airport Netaji Subhash Chandra Bose International Airport (VECC)
Time Latitude Longitude Altitude Speed Heading
2026-04-25 15:13 28.55059 77.08837 747 ft 0 kts 61°
2026-04-25 15:35 28.55052 77.08823 742 ft 2 kts 61°
2026-04-25 15:35 28.55044 77.08807 743 ft 2 kts 61°
2026-04-25 15:35 28.55036 77.08790 744 ft 2 kts 61°
2026-04-25 15:36 28.55032 77.08755 743 ft 2 kts 140°
2026-04-25 15:36 28.55046 77.08745 743 ft 2 kts 152°
2026-04-25 15:36 28.55051 77.08742 744 ft 0 kts 151°
2026-04-25 15:38 28.55050 77.08743 746 ft 1 kts 151°
2026-04-25 15:39 28.55041 77.08748 743 ft 2 kts 151°
2026-04-25 15:39 28.55020 77.08762 746 ft 4 kts 150°
2026-04-25 15:39 28.54988 77.08783 746 ft 6 kts 149°
2026-04-25 15:39 28.54944 77.08800 747 ft 8 kts 182°
2026-04-25 15:40 28.54887 77.08784 746 ft 9 kts 194°
2026-04-25 15:40 28.54866 77.08778 748 ft 10 kts 195°
2026-04-25 15:40 28.54843 77.08769 745 ft 4 kts 207°
2026-04-25 15:40 28.54823 77.08741 747 ft 6 kts 246°
2026-04-25 15:41 28.54827 77.08688 744 ft 8 kts 285°
2026-04-25 15:41 28.54845 77.08614 745 ft 11 kts 285°
2026-04-25 15:41 28.54868 77.08518 745 ft 14 kts 285°
2026-04-25 15:41 28.54893 77.08410 743 ft 15 kts 285°
2026-04-25 15:42 28.54920 77.08288 743 ft 17 kts 284°
2026-04-25 15:42 28.54948 77.08160 741 ft 2 kts 285°
2026-04-25 15:43 28.54949 77.08153 742 ft 3 kts 285°
2026-04-25 15:43 28.54957 77.08120 741 ft 6 kts 285°
2026-04-25 15:43 28.54971 77.08060 740 ft 10 kts 284°
2026-04-25 15:43 28.54991 77.07976 740 ft 12 kts 285°
2026-04-25 15:44 28.54994 77.07963 740 ft 0 kts 285°
2026-04-25 15:44 28.54996 77.07954 739 ft 4 kts 285°
2026-04-25 15:45 28.55009 77.07902 739 ft 9 kts 285°
2026-04-25 15:45 28.55029 77.07821 737 ft 12 kts 285°
2026-04-25 15:45 28.55044 77.07745 736 ft 0 kts 283°
2026-04-25 15:46 28.55045 77.07743 736 ft 2 kts 289°
2026-04-25 15:46 28.55056 77.07701 737 ft 10 kts 285°
2026-04-25 15:46 28.55096 77.07622 735 ft 14 kts 337°
2026-04-25 15:46 28.55193 77.07641 735 ft 16 kts 13°
2026-04-25 15:47 28.55289 77.07668 735 ft 13 kts 13°
2026-04-25 15:47 28.55389 77.07696 734 ft 16 kts 14°
2026-04-25 15:47 28.55504 77.07730 733 ft 18 kts 14°
2026-04-25 15:47 28.55631 77.07767 732 ft 20 kts 15°
2026-04-25 15:48 28.55771 77.07811 731 ft 22 kts 14°
2026-04-25 15:48 28.55924 77.07856 731 ft 23 kts 13°
2026-04-25 15:48 28.56082 77.07905 730 ft 24 kts 17°
2026-04-25 15:48 28.56239 77.07951 732 ft 22 kts 13°
2026-04-25 15:49 28.56381 77.07991 732 ft 17 kts 14°
2026-04-25 15:49 28.56413 77.08000 729 ft 0 kts 14°
2026-04-25 15:49 28.56422 77.08003 732 ft 7 kts 14°
2026-04-25 15:50 28.56464 77.08027 730 ft 12 kts 46°
2026-04-25 15:50 28.56531 77.08163 729 ft 17 kts 61°
2026-04-25 15:50 28.56557 77.08218 731 ft 1 kts 62°
2026-04-25 15:50 28.56565 77.08236 729 ft 0 kts 63°
2026-04-25 15:51 28.56574 77.08256 729 ft 7 kts 65°
2026-04-25 15:51 28.56571 77.08330 729 ft 12 kts 101°
2026-04-25 15:52 28.56549 77.08429 730 ft 14 kts 103°
2026-04-25 15:52 28.56525 77.08542 731 ft 15 kts 104°
2026-04-25 15:52 28.56496 77.08662 732 ft 16 kts 105°
2026-04-25 15:52 28.56466 77.08791 733 ft 17 kts 105°
2026-04-25 15:53 28.56435 77.08928 736 ft 18 kts 105°
2026-04-25 15:53 28.56401 77.09068 740 ft 19 kts 105°
2026-04-25 15:53 28.56377 77.09166 741 ft 19 kts 104°
2026-04-25 15:53 28.56362 77.09234 741 ft 20 kts 104°
2026-04-25 15:54 28.56329 77.09388 743 ft 21 kts 102°
2026-04-25 15:54 28.56291 77.09548 744 ft 21 kts 106°
2026-04-25 15:54 28.56253 77.09712 749 ft 22 kts 104°
2026-04-25 15:54 28.56214 77.09881 751 ft 22 kts 104°
2026-04-25 15:55 28.56188 77.09994 752 ft 22 kts 105°
2026-04-25 15:55 28.56135 77.10226 755 ft 23 kts 104°
2026-04-25 15:55 28.56093 77.10403 759 ft 23 kts 105°
2026-04-25 15:55 28.56052 77.10583 763 ft 24 kts 104°
2026-04-25 15:56 28.56010 77.10766 765 ft 24 kts 104°
2026-04-25 15:56 28.55968 77.10952 767 ft 24 kts 106°
2026-04-25 15:56 28.55926 77.11129 770 ft 16 kts 104°
2026-04-25 15:56 28.55908 77.11212 771 ft 11 kts 103°
2026-04-25 15:57 28.55889 77.11300 772 ft 12 kts 104°
2026-04-25 15:57 28.55872 77.11364 773 ft 13 kts 105°
2026-04-25 15:57 28.55852 77.11450 775 ft 14 kts 104°
2026-04-25 15:57 28.55827 77.11561 777 ft 15 kts 104°
2026-04-25 15:58 28.55799 77.11684 779 ft 18 kts 106°
2026-04-25 15:58 28.55769 77.11809 781 ft 19 kts 103°
2026-04-25 15:58 28.55730 77.11977 784 ft 24 kts 105°
2026-04-25 15:58 28.55685 77.12170 786 ft 26 kts 106°
2026-04-25 15:59 28.55674 77.12243 787 ft 0 kts 78°
2026-04-25 15:59 28.55678 77.12254 787 ft 4 kts 68°
2026-04-25 15:59 28.55721 77.12288 787 ft 11 kts
2026-04-25 16:00 28.55801 77.12247 788 ft 14 kts 329°
2026-04-25 16:00 28.55829 77.12229 788 ft 15 kts 329°
2026-04-25 16:00 28.55917 77.11990 784 ft 49 kts 285°
2026-04-25 16:00 28.56061 77.11367 771 ft 110 kts 284°
2026-04-25 16:01 28.56299 77.10341 781 ft 153 kts 284°
2026-04-25 16:01 28.56569 77.09206 1302 ft 150 kts 285°
2026-04-25 16:01 28.56863 77.07987 1640 ft 164 kts 287°
2026-04-25 16:01 28.57147 77.06753 2260 ft 165 kts 287°
2026-04-25 16:02 28.57443 77.05456 2587 ft 181 kts 287°
2026-04-25 16:02 28.57784 77.03965 2872 ft 203 kts 286°
2026-04-25 16:02 28.58152 77.02349 3151 ft 226 kts 285°
2026-04-25 16:02 28.58563 77.00538 3545 ft 247 kts 285°
2026-04-25 16:03 28.59003 76.98595 4179 ft 256 kts 285°
2026-04-25 16:03 28.59449 76.96621 5020 ft 258 kts 285°
2026-04-25 16:03 28.59900 76.94627 5808 ft 262 kts 285°
2026-04-25 16:03 28.60360 76.92593 6433 ft 268 kts 285°
2026-04-25 16:04 28.60825 76.90537 6698 ft 268 kts 285°
2026-04-25 16:04 28.61197 76.88454 6926 ft 271 kts 274°
2026-04-25 16:04 28.60864 76.86344 7162 ft 277 kts 248°
2026-04-25 16:04 28.59695 76.84584 7395 ft 286 kts 221°
2026-04-25 16:05 28.57937 76.83567 7635 ft 294 kts 196°
2026-04-25 16:05 28.55884 76.83498 7872 ft 301 kts 170°
2026-04-25 16:05 28.52344 76.86013 8346 ft 307 kts 136°
2026-04-25 16:06 28.50785 76.87674 8592 ft 307 kts 138°
2026-04-25 16:06 28.49159 76.89247 8843 ft 307 kts 142°
2026-04-25 16:06 28.47460 76.90722 9091 ft 308 kts 144°
2026-04-25 16:06 28.45724 76.92125 9583 ft 311 kts 146°
2026-04-25 16:07 28.43936 76.93521 10286 ft 317 kts 146°
2026-04-25 16:07 28.43312 76.94005 10366 ft 325 kts 146°
2026-04-25 16:07 28.40030 76.96536 10753 ft 359 kts 146°
2026-04-25 16:07 28.37951 76.98141 11369 ft 364 kts 146°
2026-04-25 16:08 28.35849 76.99767 12073 ft 367 kts 146°
2026-04-25 16:08 28.33724 77.01410 12771 ft 371 kts 146°
2026-04-25 16:08 28.31582 77.03067 13488 ft 374 kts 146°
2026-04-25 16:08 28.29421 77.04738 14126 ft 378 kts 146°
2026-04-25 16:09 28.27271 77.06398 14767 ft 380 kts 146°
2026-04-25 16:09 28.25075 77.08093 15397 ft 384 kts 147°
2026-04-25 16:09 28.22858 77.09804 16020 ft 387 kts 147°
2026-04-25 16:09 28.20621 77.11529 16611 ft 391 kts 147°
2026-04-25 16:10 28.18405 77.13331 17199 ft 395 kts 140°
2026-04-25 16:10 28.16464 77.15564 17775 ft 400 kts 129°
2026-04-25 16:10 28.14932 77.18207 18302 ft 404 kts 117°
2026-04-25 16:10 28.13637 77.21040 18824 ft 407 kts 117°
2026-04-25 16:11 28.12322 77.23898 19360 ft 410 kts 117°
2026-04-25 16:11 28.10996 77.26765 19898 ft 412 kts 117°
2026-04-25 16:11 28.09657 77.29650 20425 ft 415 kts 118°
2026-04-25 16:11 28.08329 77.32507 20947 ft 418 kts 118°
2026-04-25 16:12 28.06971 77.35426 21465 ft 420 kts 118°
2026-04-25 16:12 28.05601 77.38367 21983 ft 423 kts 118°
2026-04-25 16:12 28.04225 77.41322 22495 ft 426 kts 118°
2026-04-25 16:12 28.03779 77.42279 22660 ft 427 kts 118°
2026-04-25 16:13 28.01436 77.47302 23469 ft 433 kts 118°
2026-04-25 16:13 28.00023 77.50329 23868 ft 436 kts 118°
2026-04-25 16:13 27.98604 77.53367 24272 ft 439 kts 117°
2026-04-25 16:13 27.97358 77.56525 24662 ft 442 kts 110°
2026-04-25 16:14 27.96460 77.59871 25053 ft 445 kts 104°
2026-04-25 16:14 27.95699 77.63226 25448 ft 448 kts 104°
2026-04-25 16:14 27.94912 77.66645 25835 ft 451 kts 104°
2026-04-25 16:14 27.94113 77.70092 26215 ft 454 kts 104°
2026-04-25 16:15 27.93308 77.73554 26606 ft 457 kts 104°
2026-04-25 16:15 27.92496 77.77037 26975 ft 459 kts 104°
2026-04-25 16:15 27.91679 77.80539 27347 ft 462 kts 104°
2026-04-25 16:15 27.90856 77.84065 27710 ft 465 kts 104°
2026-04-25 16:16 27.90030 77.87603 28078 ft 467 kts 104°
2026-04-25 16:16 27.89209 77.91113 28425 ft 470 kts 104°
2026-04-25 16:16 27.88370 77.94696 28778 ft 472 kts 104°
2026-04-25 16:16 27.87526 77.98295 29097 ft 475 kts 104°
2026-04-25 16:17 27.86678 78.01906 29423 ft 477 kts 104°
2026-04-25 16:17 27.85824 78.05541 29763 ft 479 kts 104°
2026-04-25 16:17 27.84966 78.09186 30053 ft 481 kts 104°
2026-04-25 16:17 27.84103 78.12849 30346 ft 483 kts 104°
2026-04-25 16:18 27.83235 78.16521 30634 ft 485 kts 105°
2026-04-25 16:18 27.80941 78.23653 31315 ft 486 kts 111°
2026-04-25 16:18 27.79725 78.27210 31698 ft 485 kts 111°
2026-04-25 16:19 27.78513 78.30767 32062 ft 484 kts 111°
2026-04-25 16:19 27.77311 78.34294 32469 ft 483 kts 111°
2026-04-25 16:19 27.76100 78.37842 32842 ft 482 kts 111°
2026-04-25 16:20 27.73689 78.44885 33544 ft 480 kts 111°
2026-04-25 16:20 27.72500 78.48355 33868 ft 479 kts 111°
2026-04-25 16:20 27.70097 78.55354 34428 ft 478 kts 111°
2026-04-25 16:21 27.68895 78.58848 34685 ft 477 kts 111°
2026-04-25 16:21 27.67696 78.62333 34946 ft 477 kts 111°
2026-04-25 16:21 27.66496 78.65818 35194 ft 477 kts 111°
2026-04-25 16:21 27.65293 78.69306 35424 ft 476 kts 111°
2026-04-25 16:22 27.64093 78.72785 35660 ft 476 kts 111°
2026-04-25 16:22 27.62892 78.76262 35887 ft 476 kts 111°
2026-04-25 16:22 27.61707 78.79688 36098 ft 476 kts 111°
2026-04-25 16:22 27.60505 78.83160 36308 ft 475 kts 111°
2026-04-25 16:23 27.59305 78.86625 36527 ft 475 kts 111°
2026-04-25 16:23 27.58104 78.90090 36739 ft 474 kts 111°
2026-04-25 16:23 27.56902 78.93551 36940 ft 474 kts 111°
2026-04-25 16:23 27.55700 78.97013 37135 ft 474 kts 111°
2026-04-25 16:24 27.54501 79.00460 37327 ft 473 kts 111°
2026-04-25 16:24 27.53315 79.03870 37514 ft 473 kts 111°
2026-04-25 16:24 27.52116 79.07311 37701 ft 472 kts 111°
2026-04-25 16:24 27.50915 79.10756 37863 ft 472 kts 111°
2026-04-25 16:25 27.49714 79.14198 38030 ft 472 kts 111°
2026-04-25 16:25 27.47315 79.21062 38345 ft 471 kts 111°
2026-04-25 16:25 27.46115 79.24492 38468 ft 471 kts 111°
2026-04-25 16:26 27.44913 79.27925 38567 ft 471 kts 111°
2026-04-25 16:26 27.42913 79.33628 38713 ft 471 kts 111°
2026-04-25 16:27 27.40112 79.41598 38740 ft 471 kts 112°
2026-04-25 16:27 27.38109 79.47291 38741 ft 471 kts 112°
2026-04-25 16:28 27.35491 79.54040 38739 ft 471 kts 117°
2026-04-25 16:28 27.32613 79.60649 38739 ft 470 kts 116°
2026-04-25 16:29 27.29288 79.68320 38734 ft 469 kts 116°
2026-04-25 16:29 27.26428 79.74898 38728 ft 468 kts 116°
2026-04-25 16:30 27.24052 79.80351 38728 ft 467 kts 116°
2026-04-25 16:30 27.20727 79.87968 38726 ft 466 kts 116°
2026-04-25 16:31 27.18335 79.93441 38725 ft 466 kts 117°
2026-04-25 16:31 27.15498 79.99923 38723 ft 465 kts 117°
2026-04-25 16:32 27.12643 80.06434 38729 ft 465 kts 117°
2026-04-25 16:32 27.09788 80.12936 38733 ft 464 kts 117°
2026-04-25 16:33 27.06467 80.20486 38732 ft 464 kts 117°
2026-04-25 16:33 27.04074 80.25917 38734 ft 463 kts 117°
2026-04-25 16:34 27.01235 80.32353 38731 ft 463 kts 117°
2026-04-25 16:34 26.98378 80.38821 38739 ft 463 kts 117°
2026-04-25 16:35 26.95052 80.46336 38736 ft 463 kts 117°
2026-04-25 16:35 26.92188 80.52795 38736 ft 463 kts 117°
2026-04-25 16:36 26.89806 80.58162 38742 ft 463 kts 117°
2026-04-25 16:36 26.86936 80.64619 38748 ft 463 kts 117°
2026-04-25 16:37 26.84060 80.71077 38756 ft 463 kts 117°
2026-04-25 16:37 26.81178 80.77540 38765 ft 464 kts 118°
2026-04-25 16:38 26.78294 80.83999 38767 ft 464 kts 118°
2026-04-25 16:38 26.75634 80.90522 38771 ft 465 kts 110°
2026-04-25 16:39 26.73755 80.97455 38779 ft 466 kts 107°
2026-04-25 16:39 26.71934 81.04416 38769 ft 466 kts 107°
2026-04-25 16:40 26.70412 81.10199 38777 ft 466 kts 108°
2026-04-25 16:40 26.68279 81.18283 38766 ft 466 kts 108°
2026-04-25 16:41 26.66441 81.25233 38769 ft 466 kts 108°
2026-04-25 16:41 26.63676 81.35661 38770 ft 466 kts 108°
2026-04-25 16:42 26.61830 81.42605 38768 ft 466 kts 108°
2026-04-25 16:42 26.59996 81.49487 38760 ft 466 kts 108°
2026-04-25 16:43 26.58141 81.56436 38761 ft 466 kts 108°
2026-04-25 16:43 26.56287 81.63364 38762 ft 465 kts 108°
2026-04-25 16:44 26.54429 81.70293 38761 ft 465 kts 108°
2026-04-25 16:44 26.52586 81.77151 38759 ft 465 kts 108°
2026-04-25 16:45 26.50585 81.84584 38753 ft 465 kts 108°
2026-04-25 16:45 26.48731 81.91452 38753 ft 465 kts 108°
2026-04-25 16:46 26.46864 81.98355 38750 ft 465 kts 108°
2026-04-25 16:46 26.45612 82.02977 38748 ft 465 kts 108°
2026-04-25 16:47 26.43118 82.12161 38747 ft 465 kts 108°
2026-04-25 16:47 26.41253 82.19016 38745 ft 465 kts 108°
2026-04-25 16:48 26.39371 82.25915 38742 ft 465 kts 108°
2026-04-25 16:48 26.37482 82.32825 38742 ft 466 kts 109°
2026-04-25 16:49 26.35591 82.39731 38740 ft 466 kts 109°
2026-04-25 16:49 26.33693 82.46644 38742 ft 467 kts 109°
2026-04-25 16:50 26.31802 82.53521 38746 ft 467 kts 109°
2026-04-25 16:50 26.29893 82.60445 38745 ft 468 kts 109°
2026-04-25 16:51 26.27976 82.67386 38751 ft 469 kts 109°
2026-04-25 16:51 26.26705 82.71981 38753 ft 469 kts 109°
2026-04-25 16:52 26.24138 82.81242 38754 ft 470 kts 109°
2026-04-25 16:52 26.22203 82.88207 38753 ft 471 kts 109°
2026-04-25 16:53 26.19289 82.98668 38758 ft 473 kts 109°
2026-04-25 16:54 26.17347 83.05622 38759 ft 474 kts 109°
2026-04-25 16:54 26.15387 83.12636 38759 ft 475 kts 109°
2026-04-25 16:55 26.13439 83.19657 38762 ft 475 kts 109°
2026-04-25 16:55 26.11487 83.26699 38763 ft 476 kts 109°
2026-04-25 16:56 26.09540 83.33699 38765 ft 477 kts 109°
2026-04-25 16:56 26.07572 83.40760 38770 ft 478 kts 109°
2026-04-25 16:57 26.05600 83.47817 38771 ft 479 kts 109°
2026-04-25 16:57 26.03619 83.54897 38769 ft 480 kts 109°
2026-04-25 16:58 26.01628 83.61980 38774 ft 480 kts 109°
2026-04-25 16:58 25.99632 83.69022 38767 ft 481 kts 110°
2026-04-25 16:59 25.97620 83.76113 38769 ft 482 kts 110°
2026-04-25 16:59 25.95602 83.83214 38769 ft 482 kts 110°
2026-04-25 17:00 25.93578 83.90322 38765 ft 483 kts 110°
2026-04-25 17:00 25.91561 83.97389 38764 ft 484 kts 110°
2026-04-25 17:01 25.89523 84.04514 38761 ft 484 kts 110°
2026-04-25 17:01 25.87482 84.11638 38767 ft 485 kts 110°
2026-04-25 17:02 25.85433 84.18776 38760 ft 486 kts 110°
2026-04-25 17:02 25.83390 84.25874 38760 ft 487 kts 110°
2026-04-25 17:03 25.81324 84.33042 38767 ft 487 kts 110°
2026-04-25 17:03 25.79257 84.40197 38762 ft 487 kts 110°
2026-04-25 17:04 25.77182 84.47365 38765 ft 488 kts 110°
2026-04-25 17:04 25.75116 84.54488 38762 ft 488 kts 110°
2026-04-25 17:05 25.73032 84.61656 38754 ft 489 kts 111°
2026-04-25 17:05 25.69896 84.72418 38754 ft 489 kts 111°
2026-04-25 17:06 25.67803 84.79584 38760 ft 489 kts 111°
2026-04-25 17:06 25.65702 84.86760 38764 ft 489 kts 111°
2026-04-25 17:07 25.63609 84.93895 38767 ft 490 kts 111°
2026-04-25 17:07 25.61500 85.01071 38764 ft 490 kts 111°
2026-04-25 17:08 25.58885 85.07994 38761 ft 484 kts 124°
2026-04-25 17:08 25.55004 85.13995 38757 ft 476 kts 137°
2026-04-25 17:09 25.50445 85.19222 38773 ft 475 kts 139°
2026-04-25 17:09 25.45856 85.24490 38768 ft 476 kts 139°
2026-04-25 17:10 25.41261 85.29760 38776 ft 476 kts 139°
2026-04-25 17:10 25.36655 85.35031 38781 ft 477 kts 139°
2026-04-25 17:11 25.32043 85.40303 38784 ft 477 kts 139°
2026-04-25 17:11 25.27459 85.45535 38788 ft 477 kts 139°
2026-04-25 17:12 25.22851 85.50791 38780 ft 475 kts 139°
2026-04-25 17:12 25.18245 85.56037 38783 ft 476 kts 139°
2026-04-25 17:13 25.15164 85.59543 38788 ft 475 kts 139°
2026-04-25 17:13 25.09060 85.66480 38790 ft 476 kts 140°
2026-04-25 17:14 25.04461 85.71734 38793 ft 476 kts 139°
2026-04-25 17:14 24.99903 85.77039 38795 ft 477 kts 139°
2026-04-25 17:15 24.95339 85.82339 38773 ft 477 kts 138°
2026-04-25 17:15 24.90749 85.87647 37912 ft 479 kts 138°
2026-04-25 17:16 24.88482 85.90267 37277 ft 479 kts 138°
2026-04-25 17:17 24.79073 86.01124 34437 ft 483 kts 137°
2026-04-25 17:17 24.76746 86.03805 33727 ft 485 kts 137°
2026-04-25 17:17 24.74445 86.06455 32976 ft 485 kts 137°
2026-04-25 17:17 24.72117 86.09134 32271 ft 485 kts 137°
2026-04-25 17:18 24.69786 86.11814 31561 ft 484 kts 137°
2026-04-25 17:18 24.67466 86.14481 31059 ft 479 kts 136°
2026-04-25 17:18 24.65163 86.17129 30887 ft 483 kts 137°
2026-04-25 17:18 24.62821 86.19816 30843 ft 490 kts 137°
2026-04-25 17:19 24.58108 86.25226 30844 ft 490 kts 137°
2026-04-25 17:19 24.53428 86.30592 30844 ft 491 kts 137°
2026-04-25 17:20 24.48698 86.36009 30852 ft 491 kts 137°
2026-04-25 17:20 24.43964 86.41425 30850 ft 492 kts 137°
2026-04-25 17:21 24.39221 86.46846 30850 ft 493 kts 137°
2026-04-25 17:21 24.34495 86.52241 30854 ft 494 kts 138°
2026-04-25 17:22 24.31312 86.55871 30849 ft 494 kts 138°
2026-04-25 17:22 24.24958 86.63108 30848 ft 496 kts 138°
2026-04-25 17:23 24.20185 86.68591 30848 ft 497 kts 138°
2026-04-25 17:23 24.16197 86.73125 30844 ft 496 kts 142°
2026-04-25 17:24 24.12570 86.76046 30838 ft 485 kts 156°
2026-04-25 17:24 24.09533 86.77574 30840 ft 477 kts 167°
2026-04-25 17:24 24.03188 86.79569 30845 ft 474 kts 171°
2026-04-25 17:25 23.97917 86.81191 30850 ft 475 kts 171°
2026-04-25 17:25 23.90607 86.83455 30845 ft 449 kts 171°
2026-04-25 17:26 23.87688 86.84363 30847 ft 432 kts 172°
2026-04-25 17:26 23.85763 86.84960 30846 ft 420 kts 172°
2026-04-25 17:26 23.82135 86.86081 30842 ft 398 kts 172°
2026-04-25 17:26 23.80355 86.86630 30841 ft 387 kts 173°
2026-04-25 17:27 23.77021 86.87127 30846 ft 348 kts 195°
2026-04-25 17:27 23.74681 86.86579 30845 ft 342 kts 208°
2026-04-25 17:27 23.71943 86.84985 30849 ft 333 kts 224°
2026-04-25 17:28 23.69804 86.82660 30847 ft 319 kts 239°
2026-04-25 17:28 23.68687 86.80603 30850 ft 314 kts 250°
2026-04-25 17:28 23.67808 86.75239 30852 ft 312 kts 274°
2026-04-25 17:29 23.68716 86.71427 30858 ft 318 kts 291°
2026-04-25 17:29 23.69871 86.69350 30856 ft 324 kts 303°
2026-04-25 17:29 23.71458 86.67565 30856 ft 333 kts 314°
2026-04-25 17:30 23.73438 86.66182 30855 ft 345 kts 327°
2026-04-25 17:30 23.75732 86.65290 30749 ft 356 kts 336°
2026-04-25 17:30 23.78892 86.64333 30442 ft 355 kts 336°
2026-04-25 17:30 23.81261 86.63614 30212 ft 353 kts 336°
2026-04-25 17:31 23.82863 86.63124 30059 ft 352 kts 336°
2026-04-25 17:31 23.83608 86.62896 29984 ft 352 kts 337°
2026-04-25 17:32 23.93650 86.60440 28873 ft 359 kts 357°
2026-04-25 17:33 23.96117 86.60919 28606 ft 365 kts 12°
2026-04-25 17:33 23.98411 86.62069 28351 ft 373 kts 28°
2026-04-25 17:33 24.00417 86.63881 28105 ft 379 kts 44°
2026-04-25 17:33 24.01942 86.66248 27846 ft 382 kts 61°
2026-04-25 17:34 24.02842 86.68973 27593 ft 382 kts 78°
2026-04-25 17:34 24.03053 86.71889 27339 ft 380 kts 95°
2026-04-25 17:34 24.02573 86.74690 27094 ft 377 kts 111°
2026-04-25 17:34 24.01455 86.77250 26844 ft 371 kts 128°
2026-04-25 17:35 23.99809 86.79373 26600 ft 362 kts 143°
2026-04-25 17:35 23.97778 86.80944 26363 ft 354 kts 159°
2026-04-25 17:35 23.95516 86.81905 26121 ft 346 kts 171°
2026-04-25 17:35 23.93198 86.82605 25884 ft 346 kts 170°
2026-04-25 17:36 23.90890 86.83319 25642 ft 343 kts 170°
2026-04-25 17:36 23.88601 86.84031 25407 ft 341 kts 170°
2026-04-25 17:36 23.86352 86.84729 25180 ft 341 kts 170°
2026-04-25 17:36 23.84076 86.85432 24952 ft 340 kts 169°
2026-04-25 17:37 23.81812 86.86167 24859 ft 344 kts 162°
2026-04-25 17:37 23.79702 86.87574 24850 ft 370 kts 141°
2026-04-25 17:37 23.77995 86.89775 24848 ft 391 kts 127°
2026-04-25 17:37 23.76511 86.92342 24846 ft 410 kts 123°
2026-04-25 17:38 23.75032 86.95071 24844 ft 426 kts 122°
2026-04-25 17:38 23.74006 86.96940 24845 ft 437 kts 123°
2026-04-25 17:38 23.71847 87.00755 24838 ft 457 kts 124°
2026-04-25 17:38 23.70126 87.03720 24839 ft 461 kts 124°
2026-04-25 17:39 23.68402 87.06659 24838 ft 460 kts 124°
2026-04-25 17:39 23.66673 87.09595 24836 ft 460 kts 124°
2026-04-25 17:39 23.64945 87.12525 24837 ft 460 kts 124°
2026-04-25 17:39 23.63212 87.15459 24837 ft 460 kts 124°
2026-04-25 17:40 23.61478 87.18395 24838 ft 460 kts 124°
2026-04-25 17:40 23.59744 87.21330 24836 ft 460 kts 124°
2026-04-25 17:40 23.58009 87.24265 24839 ft 461 kts 124°
2026-04-25 17:40 23.56274 87.27198 24838 ft 461 kts 124°
2026-04-25 17:41 23.54557 87.30100 24833 ft 461 kts 124°
2026-04-25 17:41 23.52824 87.33027 24651 ft 459 kts 124°
2026-04-25 17:41 23.51094 87.35945 24154 ft 460 kts 124°
2026-04-25 17:41 23.49352 87.38882 23433 ft 462 kts 124°
2026-04-25 17:42 23.47600 87.41833 22499 ft 466 kts 124°
2026-04-25 17:42 23.45845 87.44790 21806 ft 462 kts 124°
2026-04-25 17:42 23.44108 87.47715 21180 ft 457 kts 124°
2026-04-25 17:42 23.42391 87.50606 20572 ft 452 kts 123°
2026-04-25 17:43 23.40713 87.53428 19957 ft 448 kts 123°
2026-04-25 17:43 23.39027 87.56261 19362 ft 444 kts 123°
2026-04-25 17:43 23.37248 87.58985 18773 ft 439 kts 130°
2026-04-25 17:43 23.35139 87.61352 18177 ft 434 kts 140°
2026-04-25 17:44 23.32751 87.63324 17528 ft 429 kts 147°
2026-04-25 17:44 23.30312 87.65158 16964 ft 423 kts 147°
2026-04-25 17:44 23.27918 87.66971 16433 ft 416 kts 146°
2026-04-25 17:44 23.25558 87.68763 15905 ft 410 kts 146°
2026-04-25 17:45 23.23232 87.70528 15384 ft 405 kts 146°
2026-04-25 17:45 23.22485 87.71095 15219 ft 404 kts 146°
2026-04-25 17:45 23.18691 87.73973 14362 ft 396 kts 146°
2026-04-25 17:45 23.16443 87.75676 13860 ft 392 kts 146°
2026-04-25 17:46 23.14216 87.77362 13324 ft 388 kts 146°
2026-04-25 17:46 23.12756 87.78467 13011 ft 384 kts 146°
2026-04-25 17:46 23.11326 87.79549 12693 ft 381 kts 146°
2026-04-25 17:47 23.09162 87.81186 12216 ft 376 kts 146°
2026-04-25 17:47 23.07029 87.82800 11743 ft 372 kts 146°
2026-04-25 17:47 23.04949 87.84372 11278 ft 368 kts 146°
2026-04-25 17:47 23.02864 87.85947 10805 ft 364 kts 146°
2026-04-25 17:48 22.98769 87.89041 10188 ft 347 kts 146°
2026-04-25 17:48 22.96829 87.90508 10070 ft 334 kts 146°
2026-04-25 17:48 22.94963 87.91917 9957 ft 320 kts 147°
2026-04-25 17:49 22.93159 87.93280 9721 ft 313 kts 147°
2026-04-25 17:49 22.91412 87.94661 9386 ft 309 kts 138°
2026-04-25 17:49 22.90184 87.96494 9035 ft 307 kts 113°
2026-04-25 17:49 22.89684 87.98730 8674 ft 304 kts 97°
2026-04-25 17:50 22.89471 88.00996 8323 ft 301 kts 95°
2026-04-25 17:50 22.89301 88.03250 7968 ft 299 kts 95°
2026-04-25 17:50 22.89120 88.05487 7615 ft 296 kts 95°
2026-04-25 17:50 22.88922 88.07695 7266 ft 295 kts 96°
2026-04-25 17:51 22.88715 88.09903 6914 ft 293 kts 95°
2026-04-25 17:51 22.88729 88.12106 6591 ft 292 kts 88°
2026-04-25 17:51 22.88822 88.14334 6262 ft 297 kts 88°
2026-04-25 17:51 22.88908 88.16570 5921 ft 296 kts 88°
2026-04-25 17:52 22.88987 88.18756 5600 ft 292 kts 88°
2026-04-25 17:52 22.89014 88.19497 5486 ft 291 kts 88°
2026-04-25 17:52 22.89131 88.22770 5007 ft 288 kts 88°
2026-04-25 17:52 22.89209 88.24945 4694 ft 288 kts 88°
2026-04-25 17:53 22.89281 88.26939 4384 ft 286 kts 88°
2026-04-25 17:53 22.89355 88.28997 4078 ft 284 kts 88°
2026-04-25 17:53 22.89432 88.31140 3881 ft 284 kts 89°
2026-04-25 17:53 22.89506 88.33209 3828 ft 272 kts 89°
2026-04-25 17:54 22.89577 88.35197 3821 ft 256 kts 89°
2026-04-25 17:54 22.89463 88.37055 3761 ft 240 kts 105°
2026-04-25 17:54 22.88876 88.38697 3632 ft 233 kts 120°
2026-04-25 17:54 22.88135 88.40299 3469 ft 238 kts 119°
2026-04-25 17:55 22.87407 88.41920 3166 ft 240 kts 118°
2026-04-25 17:55 22.86697 88.43530 3021 ft 231 kts 118°
2026-04-25 17:55 22.86033 88.45051 2978 ft 217 kts 119°
2026-04-25 17:55 22.85122 88.46277 2773 ft 201 kts 151°
2026-04-25 17:56 22.83886 88.46722 2465 ft 190 kts 181°
2026-04-25 17:56 22.82576 88.46583 2126 ft 186 kts 189°
2026-04-25 17:56 22.81333 88.46428 2004 ft 172 kts 188°
2026-04-25 17:56 22.80182 88.46292 2002 ft 170 kts 188°
2026-04-25 17:57 22.79040 88.46159 1983 ft 157 kts 188°
2026-04-25 17:57 22.78036 88.46045 1983 ft 132 kts 188°
2026-04-25 17:57 22.77164 88.45945 2010 ft 129 kts 188°
2026-04-25 17:57 22.76872 88.45909 1997 ft 129 kts 188°
2026-04-25 17:58 22.75397 88.45735 1728 ft 127 kts 188°
2026-04-25 17:58 22.74519 88.45630 1560 ft 127 kts 188°
2026-04-25 17:58 22.73637 88.45526 1391 ft 128 kts 188°
2026-04-25 17:58 22.72752 88.45422 1232 ft 129 kts 187°
2026-04-25 17:59 22.71854 88.45316 1056 ft 130 kts 187°
2026-04-25 17:59 22.70954 88.45211 897 ft 131 kts 187°
2026-04-25 17:59 22.70037 88.45102 735 ft 133 kts 186°
2026-04-25 17:59 22.69118 88.44994 560 ft 132 kts 186°
2026-04-25 18:00 22.68225 88.44890 393 ft 128 kts 186°
2026-04-25 18:00 22.67351 88.44788 218 ft 126 kts 185°
2026-04-25 18:00 22.66485 88.44693 91 ft 125 kts 185°
2026-04-25 18:00 22.65621 88.44592 31 ft 116 kts 186°
2026-04-25 18:01 22.65029 88.44525 27 ft 56 kts 186°
2026-04-25 18:01 22.64738 88.44489 30 ft 40 kts 186°
2026-04-25 18:01 22.64468 88.44457 28 ft 39 kts 186°
2026-04-25 18:01 22.64251 88.44432 29 ft 15 kts 188°
2026-04-25 18:02 22.64179 88.44370 28 ft 4 kts 254°
2026-04-25 18:03 22.64177 88.44363 28 ft 3 kts 254°
2026-04-25 18:03 22.64162 88.44323 28 ft 7 kts 225°
2026-04-25 18:03 22.64108 88.44300 28 ft 10 kts 185°
2026-04-25 18:03 22.64033 88.44291 28 ft 12 kts 188°
2026-04-25 18:04 22.64008 88.44221 28 ft 12 kts 278°
2026-04-25 18:04 22.64019 88.44122 28 ft 14 kts 273°
2026-04-25 18:04 22.63984 88.44022 28 ft 14 kts 245°
2026-04-25 18:04 22.64013 88.43973 28 ft 9 kts 339°
2026-04-25 18:05 22.64046 88.43958 28 ft 0 kts 338°
2026-04-25 18:05 22.64049 88.43957 28 ft 0 kts 338°